Wind_Speed
11 8 6 6 8 8 3 8 8 9 7 7 5 6 9 10 15 17 20 20 19 17 16 13 13 11 9 7 5 3 2 6 7 10 12 12 12 13 16 17 18 18 21
11 5 3 4 8 12 10 2 1 6 9 14 14 16 19 17 14 17 15 14 9 10 8 7 7 5 4 3 3 5 7 8 8 10 10 9 12 14 16 17 16 16 18
8 9 11 13 13 12 10 9 14 14 14 16 16 15 14 14 13 15 10 10 9 7 6 4 3 3 4 5 6 8 9 9 8 8 9 10 13 14 15 16 18 20 17
9 10 13 15 13 13 17 17 16 16 16 14 14 12 13 12 11 10 7 7 6 7 8 9 9 9 9 9 7 7 8 7 8 8 9 10 11 13 16 14 16 16 18
8 11 15 15 16 15 13 16 17 15 15 15 14 12 10 8 9 7 7 8 8 9 10 9 9 9 8 7 6 8 9 9 10 10 11 11 13 14 16 16 17 18 18
7 12 16 13 13 17 17 16 15 16 16 10 8 7 5 8 9 9 9 9 9 8 8 9 8 8 10 10 11 11 12 13 11 11 13 15 15 16 16 17 19 20 20
13 15 17 17 17 16 15 14 12 12 10 10 9 8 9 10 11 10 10 11 11 12 10 9 9 9 9 10 11 12 12 13 14 14 12 14 16 16 18 19 19 20 22
16 15 14 15 13 13 12 11 10 9 8 9 9 10 8 12 12 13 14 16 16 15 12 10 9 9 9 9 10 11 11 12 14 15 17 20 20 21 21 21 22 21 23
10 10 10 12 14 11 8 7 7 6 8 9 10 11 12 15 15 15 16 17 19 19 17 15 14 13 13 12 12 13 14 15 17 19 19 19 19 19 19 18 17 19 21
13 16 15 13 10 7 5 4 5 7 9 10 12 14 14 15 15 14 14 13 17 14 14 16 17 17 16 16 16 15 17 22 22 21 17 15 16 16 18 18 18 20 21
17 18 14 8 2 2 1 4 5 6 6 9 10 12 12 12 12 12 10 9 9 10 10 11 15 16 17 17 19 17 20 21 18 16 16 16 15 15 15 18 19 19 20
17 12 7 5 4 3 2 6 7 5 8 9 9 9 8 8 8 10 9 8 8 7 9 10 12 15 17 18 16 18 20 16 15 16 17 20 24 20 21 20 20 22 22
13 8 8 6 6 7 6 6 6 7 6 7 7 6 5 6 6 7 6 6 6 7 8 10 12 13 16 15 18 18 17 14 18 17 19 26 24 19 19 19 19 17 18
5 7 10 7 6 5 6 7 6 6 5 4 3 3 4 7 8 7 5 4 5 7 9 11 10 10 15 17 15 15 13 14 18 20 23 27 23 20 22 19 20 22 19
5 7 10 8 8 5 6 7 7 6 5 3 2 1 1 4 7 8 6 4 5 7 8 9 7 9 13 15 15 13 12 14 18 18 22 27 26 21 23 21 26 23 19
4 10 11 9 9 7 8 6 4 4 2 1 2 3 5 6 9 10 11 8 6 8 8 7 7 10 13 15 14 13 12 15 17 17 22 24 28 25 23 23 27 21 23
5 10 11 7 5 5 6 5 3 1 2 3 4 5 7 10 10 9 13 9 8 7 5 4 7 9 12 13 13 13 12 15 16 15 19 24 24 27 23 24 24 21 19
9 8 7 4 3 2 3 4 3 1 0 2 5 7 8 9 8 10 6 5 7 4 4 6 7 9 12 13 13 13 12 14 15 17 17 21 23 25 26 22 22 19 12
9 7 7 6 3 1 2 1 3 2 2 3 3 5 8 8 7 6 3 3 4 6 6 8 8 10 11 12 12 12 11 13 16 15 17 19 21 23 24 23 20 19 16
6 6 4 2 3 1 1 2 3 3 4 4 5 5 5 6 5 5 4 4 4 5 7 8 8 9 10 11 12 11 12 12 15 15 16 17 22 21 22 22 19 21 17
2 1 0 1 3 3 3 3 4 5 5 4 6 7 8 6 6 5 5 5 5 6 6 7 6 8 9 10 11 11 11 12 15 16 16 17 18 22 20 17 19 18 18
4 1 2 1 2 2 3 3 4 5 5 5 5 8 9 7 6 6 6 6 6 5 5 7 8 8 8 10 12 13 12 12 14 16 16 17 16 18 23 16 15 17 16
4 4 4 4 4 4 5 5 5 6 6 7 6 5 7 8 8 8 7 8 10 9 8 9 8 8 9 10 11 12 13 15 14 15 15 14 17 16 17 18 16 17 16
5 6 6 6 5 5 4 5 6 7 7 8 9 8 7 7 7 7 7 7 7 7 9 9 8 8 9 10 11 12 13 14 13 15 16 15 16 16 12 13 13 15 15
5 3 4 3 3 2 4 3 4 5 6 8 9 9 9 9 8 8 8 8 8 8 9 9 8 8 8 9 9 10 11 11 14 14 16 16 15 15 15 11 13 10 13
6 2 2 1 1 1 1 1 2 3 4 6 7 7 8 8 9 9 9 9 9 9 9 9 9 9 9 9 8 8 8 10 10 10 11 14 17 17 15 14 12 11 13
Wind_Direction
55 66 98 147 181 188 241 300 295 318 6 6 7 84 75 83 82 85 78 79 77 74 73 63 54 51 50 54 35 16 318 274 277 271 277 278 278 283 283 284 281 280 278
64 85 122 194 238 264 283 291 81 43 70 90 84 88 90 89 86 82 83 79 75 72 62 50 36 36 11 344 321 310 303 308 294 281 269 282 287 291 294 297 298 295 292
70 76 86 86 91 91 87 86 99 98 96 100 99 93 94 90 93 85 79 82 85 77 69 57 26 2 336 316 311 301 303 302 289 287 298 299 296 297 301 306 303 299 301
78 77 79 83 82 94 107 104 102 101 101 104 94 83 89 86 81 77 69 59 42 23 11 358 352 343 339 333 333 333 335 338 329 324 308 302 301 298 308 311 305 302 299
76 83 86 101 111 109 105 104 104 101 94 86 84 85 85 80 65 48 28 13 3 354 351 352 353 354 347 345 351 335 338 340 327 324 312 313 310 311 306 301 303 303 306
109 115 113 115 116 111 107 101 97 95 93 87 79 72 63 66 41 19 12 12 15 22 32 37 30 17 16 10 5 358 350 346 346 337 325 319 317 312 307 304 304 304 304
114 119 113 113 114 111 107 107 99 98 94 88 86 78 65 50 35 33 38 44 42 40 33 23 22 6 357 351 348 348 346 341 338 333 326 320 312 309 305 303 297 292 292
124 117 117 116 111 112 117 110 105 100 95 93 81 63 55 70 59 59 56 54 45 38 31 28 27 18 7 359 356 354 353 351 337 331 321 318 312 308 303 299 297 296 298
118 102 100 107 114 109 106 109 111 109 108 104 86 86 80 83 77 68 61 53 48 47 49 48 46 38 32 24 20 10 1 350 341 332 320 311 307 303 302 304 297 294 297
115 109 105 101 99 102 97 109 113 113 104 90 95 92 89 85 75 62 55 50 46 47 47 46 41 35 27 20 9 4 356 350 347 348 344 338 330 319 316 304 294 288 289
113 109 95 81 83 79 128 128 120 122 104 105 97 96 89 82 71 58 50 49 49 45 43 40 33 27 23 15 8 1 354 349 354 349 346 342 333 326 319 304 304 297 288
120 105 129 125 112 94 115 134 132 126 126 109 100 94 83 72 61 50 45 45 45 40 31 26 17 13 7 6 4 359 354 5 359 356 352 348 342 329 326 323 309 301 291
81 128 132 116 111 105 116 131 141 138 131 113 98 81 62 46 31 23 20 33 43 32 16 1 352 353 355 357 356 358 4 2 0 357 351 358 351 352 346 336 337 324 303
159 150 144 130 107 113 130 132 144 142 141 138 119 94 44 20 8 354 345 341 346 355 348 342 346 348 353 357 358 357 0 0 2 359 4 1 359 4 7 359 358 350 336
195 174 153 131 84 80 136 138 146 143 153 170 215 283 4 352 356 2 1 4 341 330 324 333 351 351 351 350 351 357 0 6 7 5 5 4 10 9 13 5 5 0 1
217 191 162 123 82 92 102 127 139 167 182 237 276 263 273 308 339 342 336 325 318 314 312 333 347 354 353 353 358 359 358 7 7 7 8 9 12 13 11 10 11 25 38
168 174 154 130 90 111 96 95 94 334 284 288 291 284 287 307 322 329 316 310 313 308 317 353 352 356 356 358 357 357 356 9 8 3 4 7 10 15 15 11 18 24 34
108 128 145 138 134 129 59 353 341 353 218 309 309 323 333 331 324 313 317 311 299 314 10 350 348 348 352 354 352 352 353 8 8 7 3 3 7 11 17 10 13 17 22
107 107 129 122 93 36 282 311 49 15 40 26 14 348 342 354 356 350 354 307 322 337 348 339 339 341 345 349 349 351 356 0 8 10 9 4 7 13 15 14 9 20 26
90 109 120 170 230 250 324 52 69 9 10 1 346 335 341 351 353 356 356 359 353 344 341 339 335 342 348 350 356 360 358 0 11 13 10 8 11 7 15 18 11 15 25
95 113 122 54 94 107 98 46 32 11 8 4 349 333 329 347 345 348 345 343 337 332 338 339 349 349 352 3 10 9 9 10 12 10 9 10 14 9 16 22 17 15 20
343 271 107 98 90 71 46 26 36 49 43 32 17 2 18 42 39 35 36 31 16 18 9 30 14 1 19 21 21 23 20 12 7 9 12 11 10 9 13 18 24 20 22
66 60 77 101 90 68 64 61 60 57 44 43 52 49 41 45 44 41 41 35 41 49 39 27 25 29 27 21 17 21 17 13 12 13 15 13 9 10 14 21 23 27 34
75 73 102 92 83 80 77 68 57 60 58 56 54 51 48 45 47 40 42 39 36 32 34 35 36 31 25 22 23 24 15 21 22 19 18 19 16 15 10 15 14 28 36
160 53 83 73 72 80 50 76 60 62 58 55 53 52 49 49 44 42 43 40 37 31 28 29 27 22 15 15 15 19 10 9 13 25 26 28 20 15 12 10 15 16 15
207 238 276 295 346 338 51 89 51 46 50 47 47 47 45 44 42 40 39 36 35 31 28 26 19 15 12 7 2 359 2 1 8 13 17 22 26 24 17 15 15 14 28
Height
1495 1495 1497 1499 1501 1502 1503 1503 1502 1501 1500 1500 1500 1499 1498 1498 1499 1499 1498 1500 1503 1506 1507 1509 1508 1509 1511 1509 1512 1512 1512 1516 1517 1519 1519 1517 1516 1514 1514 1514 1513 1510 1511
1500 1500 1500 1501 1502 1502 1502 1502 1502 1502 1502 1503 1503 1502 1502 1502 1504 1503 1505 1504 1508 1506 1508 1508 1510 1511 1511 1511 1511 1513 1516 1515 1515 1517 1515 1512 1511 1509 1508 1510 1506 1506 1506
1504 1503 1502 1502 1503 1503 1503 1503 1504 1505 1505 1505 1506 1506 1508 1508 1509 1507 1511 1511 1511 1511 1511 1511 1512 1511 1511 1512 1512 1513 1513 1512 1513 1512 1509 1509 1508 1507 1505 1504 1502 1501 1500
1508 1506 1505 1505 1506 1507 1507 1507 1508 1508 1509 1510 1509 1511 1511 1512 1511 1512 1514 1514 1513 1513 1512 1511 1510 1511 1511 1511 1510 1510 1509 1509 1508 1506 1505 1506 1506 1504 1500 1499 1498 1497 1495
1512 1512 1510 1510 1510 1511 1512 1512 1513 1513 1513 1513 1513 1514 1515 1515 1515 1515 1515 1515 1513 1513 1512 1511 1511 1510 1510 1510 1510 1509 1508 1507 1507 1505 1504 1503 1502 1499 1498 1496 1494 1493 1491
1514 1514 1514 1514 1515 1515 1516 1516 1516 1517 1517 1518 1518 1518 1517 1517 1518 1517 1516 1515 1514 1513 1513 1513 1512 1512 1510 1509 1509 1508 1507 1505 1504 1503 1503 1501 1499 1497 1496 1492 1491 1488 1485
1517 1518 1518 1518 1519 1520 1520 1520 1520 1521 1521 1521 1522 1522 1521 1521 1520 1520 1517 1516 1515 1515 1515 1514 1514 1513 1512 1511 1510 1508 1507 1505 1503 1501 1500 1498 1495 1494 1491 1488 1487 1485 1482
1520 1521 1521 1522 1523 1524 1524 1524 1525 1525 1525 1524 1525 1526 1524 1523 1524 1523 1520 1519 1518 1517 1516 1516 1516 1515 1513 1512 1510 1509 1508 1505 1502 1499 1496 1493 1490 1487 1485 1483 1480 1476 1473
1523 1522 1524 1526 1526 1528 1528 1528 1528 1528 1528 1527 1526 1527 1527 1526 1526 1526 1524 1523 1521 1520 1519 1518 1518 1517 1515 1513 1511 1509 1506 1503 1500 1496 1492 1489 1486 1484 1481 1478 1476 1473 1469
1525 1525 1528 1530 1530 1530 1529 1530 1530 1531 1531 1530 1529 1529 1529 1530 1529 1528 1528 1527 1524 1525 1524 1522 1520 1518 1516 1513 1511 1508 1504 1500 1496 1492 1489 1486 1483 1480 1476 1473 1471 1468 1466
1529 1530 1532 1533 1533 1533 1532 1532 1532 1533 1533 1532 1533 1532 1533 1532 1531 1531 1530 1529 1528 1528 1527 1525 1522 1520 1517 1514 1511 1507 1504 1501 1497 1493 1490 1487 1482 1478 1475 1471 1467 1463 1460
1532 1533 1535 1536 1535 1534 1534 1534 1534 1535 1535 1535 1534 1535 1535 1535 1533 1532 1532 1530 1529 1529 1528 1525 1523 1521 1518 1515 1512 1508 1505 1500 1497 1493 1490 1485 1479 1474 1469 1465 1461 1458 1454
1534 1535 1536 1537 1536 1536 1536 1536 1536 1536 1537 1537 1537 1537 1537 1536 1535 1533 1533 1531 1530 1530 1529 1526 1524 1522 1519 1516 1512 1508 1503 1501 1497 1493 1489 1483 1477 1472 1466 1461 1456 1451 1447
1536 1536 1537 1537 1538 1537 1537 1537 1538 1538 1538 1538 1538 1538 1538 1537 1536 1535 1534 1532 1531 1530 1528 1526 1524 1522 1519 1515 1512 1508 1504 1501 1497 1493 1488 1482 1477 1470 1464 1459 1454 1449 1443
1537 1537 1538 1538 1538 1539 1538 1538 1540 1539 1540 1540 1539 1538 1538 1538 1537 1535 1533 1532 1531 1530 1528 1526 1525 1523 1520 1516 1512 1508 1504 1501 1497 1493 1488 1482 1476 1470 1465 1460 1455 1448 1442
1537 1537 1539 1540 1540 1541 1540 1540 1540 1540 1540 1539 1539 1538 1537 1537 1535 1534 1533 1531 1530 1529 1528 1526 1525 1523 1519 1515 1511 1508 1505 1501 1497 1493 1488 1483 1478 1472 1466 1461 1456 1448 1444
1536 1538 1540 1541 1541 1542 1541 1541 1540 1540 1540 1539 1538 1537 1536 1535 1533 1532 1531 1530 1529 1528 1527 1526 1524 1522 1519 1515 1511 1508 1505 1501 1497 1493 1489 1484 1479 1474 1468 1463 1458 1452 1448
1538 1540 1541 1541 1542 1542 1542 1541 1540 1540 1540 1539 1537 1535 1534 1533 1531 1530 1529 1528 1528 1527 1526 1525 1523 1520 1517 1514 1511 1508 1505 1501 1498 1494 1490 1486 1481 1476 1470 1466 1461 1456 1452
1541 1542 1542 1542 1543 1542 1541 1540 1540 1539 1539 1538 1537 1535 1533 1531 1530 1529 1528 1527 1526 1525 1525 1523 1521 1519 1516 1513 1511 1508 1505 1502 1498 1494 1491 1487 1482 1478 1473 1468 1464 1459 1455
1541 1542 1542 1542 1541 1541 1541 1540 1540 1538 1537 1536 1534 1533 1532 1532 1530 1528 1527 1526 1525 1524 1523 1521 1519 1517 1515 1513 1510 1508 1505 1503 1499 1495 1492 1488 1484 1479 1475 1470 1467 1462 1457
1542 1542 1542 1541 1541 1541 1540 1539 1538 1537 1536 1535 1533 1531 1530 1529 1528 1526 1525 1524 1523 1522 1520 1518 1517 1517 1515 1512 1510 1508 1506 1503 1500 1496 1493 1489 1485 1481 1477 1473 1470 1465 1461
1541 1541 1541 1541 1540 1540 1539 1538 1538 1537 1536 1535 1533 1530 1528 1528 1527 1526 1524 1523 1521 1519 1518 1517 1517 1516 1514 1513 1511 1508 1506 1503 1500 1497 1494 1490 1487 1483 1478 1474 1472 1468 1464
1541 1540 1540 1540 1540 1540 1539 1539 1538 1537 1536 1535 1533 1532 1531 1529 1528 1527 1525 1524 1522 1520 1519 1518 1517 1517 1515 1513 1511 1509 1507 1504 1501 1498 1495 1491 1487 1484 1480 1476 1473 1471 1467
1541 1541 1541 1541 1541 1541 1540 1540 1538 1538 1537 1536 1534 1533 1532 1531 1529 1528 1527 1525 1524 1523 1521 1520 1519 1518 1516 1514 1512 1510 1507 1505 1502 1499 1496 1492 1489 1485 1482 1479 1476 1473 1470
1542 1542 1542 1542 1542 1542 1541 1540 1540 1539 1538 1537 1535 1534 1533 1531 1530 1529 1527 1526 1525 1524 1522 1521 1519 1518 1516 1514 1513 1511 1508 1506 1503 1500 1497 1494 1490 1487 1484 1481 1478 1475 1472
1540 1541 1541 1541 1541 1542 1541 1541 1540 1539 1538 1537 1536 1535 1534 1533 1531 1530 1528 1527 1526 1524 1523 1522 1520 1518 1516 1515 1513 1511 1509 1506 1504 1501 1499 1496 1492 1489 1486 1482 1480 1477 1474